Location: Unspecified
(0.0000°N, 0.0000°E)
Time: 19:14:12
(UTC+00:00)

THORAD DELTA 1 DEB - Pass Details

Date: 14 February 2026
Orbit: 1451 x 1738 km, 101.5° (Epoch: 9 March)

Event Time Altitude Azimuth Distance (km) Brightness Sun altitude
Rises 20:49:10 0° 172° (S) 4,750 ? -37.6°
Reaches altitude 10° 20:52:07 10° 175° (S) 3,729 ? -38.3°
Maximum altitude 21:00:39 63° 254° (WSW) 1,635 ? -40.4°
Drops below altitude 10° 21:08:51 10° 334° (NNW) 3,573 ? -42.3°
Sets 21:11:38 0° 337° (NNW) 4,541 ? -43.0°
